Overview Statistics Trail Chart Weather Telemetry Raw packets
 

This is the latest recevied weather packets stored in our database for station/object SV9TNF-57. If no packets are shown the sender has not sent any weather packets the latest 10 day(s).

<< 26 27 28 29 30 31 32 >>
Time Temp. Humidity Pressure Rain* Wind** Luminosity Snow
1788480866 26.11° C 51% 993.2 hPa 0 mm 6.71 m/s, 227° - -
1788480566 26.11° C 51% 993.1 hPa 0 mm 6.26 m/s, 29° - -
1788480266 26.11° C 51% 993.2 hPa 0 mm 8.94 m/s, 307° - -
1788479966 26.11° C 51% 993.2 hPa 0 mm 4.92 m/s, 332° - -
1788479666 26.11° C 50% 993.3 hPa 0 mm 6.26 m/s, 283° - -
1788479366 26.11° C 50% 993.2 hPa 0 mm 8.05 m/s, 315° - -
1788479066 26.11° C 50% 993.3 hPa 0 mm 5.81 m/s, 259° - -
1788478766 26.11° C 49% 993.3 hPa 0 mm 5.36 m/s, 300° - -
1788478466 26.11° C 48% 993.3 hPa 0 mm 4.92 m/s, 321° - -
1788478174 26.11° C 48% 993.3 hPa 0 mm 5.36 m/s, 330° - -
1788477866 26.11° C 48% 993.5 hPa 0 mm 8.05 m/s, 292° - -
1788477566 26.67° C 47% 993.3 hPa 0 mm 8.49 m/s, 353° - -
1788477265 26.67° C 47% 993.5 hPa 0 mm 7.6 m/s, 338° - -
1788476965 26.67° C 46% 993.4 hPa 0 mm 8.49 m/s, 328° - -
1788476665 26.11° C 46% 993.5 hPa 0 mm 8.49 m/s, 315° - -
1788476365 26.67° C 46% 993.5 hPa 0 mm 11.18 m/s, 339° - -
1788476065 26.67° C 45% 993.6 hPa 0 mm 10.28 m/s, 314° - -
1788475765 26.67° C 45% 993.7 hPa 0 mm 8.05 m/s, 305° - -
1788475465 26.67° C 45% 993.5 hPa 0 mm 12.52 m/s, 337° - -
1788475165 26.67° C 45% 993.6 hPa 0 mm 8.49 m/s, 6° - -
1788474864 26.67° C 44% 993.5 hPa 0 mm 6.71 m/s, 357° - -
1788474564 26.67° C 45% 993.6 hPa 0 mm 4.92 m/s, 332° - -
1788474265 26.67° C 46% 993.4 hPa 0 mm 8.05 m/s, 292° - -
1788473964 26.67° C 47% 993.5 hPa 0 mm 6.71 m/s, 345° - -
1788473664 26.11° C 48% 993.6 hPa 0 mm 8.05 m/s, 325° - -

* Rain latest hour (hover to see other rain measurements)
** Current wind speed in m/s (hover to see current wind gust speed)